Hourly Data Report for October 01, 2017

All times are specified in Local Standard Time (LST). Add 1 hour to adjust for Daylight Saving Time where and when it is observed.

BEAVER ISLAND (AUT)
NOVA SCOTIA

44°49'00.000" N
62°20'00.000" W
16.00 m
8200558
71403
WBV

Download Data

Hourly Data (October 2017)
Hourly Data Report for October 1, 2017
Temp Definition
°C
Dew Point Temp Definition
°C
Rel Hum Definition
%
Wind Dir Definition
10's deg

Wind Spd Definition
km/h
Visibility Definition
km
Stn Press Definition
kPa
Hmdx Definition


Wind Chill Definition


Weather Definition


TIME
00:00 9.7 LegendMM LegendMM 1 15   102.21     LegendNANA
01:00 9.4 LegendMM LegendMM 1 13   102.19     LegendNANA
02:00 8.6 LegendMM LegendMM 36 14   102.18     LegendNANA
03:00 8.9 LegendMM LegendMM 35 11   102.17     LegendNANA
04:00 9.2 LegendMM LegendMM 33 7   102.17     LegendNANA
05:00 9.3 LegendMM LegendMM 29 6   102.13     LegendNANA
06:00 8.8 LegendMM LegendMM 30 9   102.14     LegendNANA
07:00 9.3 LegendMM LegendMM 30 11   102.15     LegendNANA
08:00 10.8 LegendMM LegendMM 28 15   102.18     LegendNANA
09:00 11.5 LegendMM LegendMM 27 19   102.16     LegendNANA
10:00 12.9 LegendMM LegendMM 27 16   102.12     LegendNANA
11:00 13.7 LegendMM LegendMM 25 20   102.07     LegendNANA
12:00 14.2 LegendMM LegendMM 24 25   102.01     LegendNANA
13:00 14.0 LegendMM LegendMM 23 32   101.91     LegendNANA
14:00 14.0 LegendMM LegendMM 23 34   101.83     LegendNANA
15:00 14.4 LegendMM LegendMM 24 35   101.73     LegendNANA
16:00 14.5 LegendMM LegendMM 24 36   101.67     LegendNANA
17:00 14.7 LegendMM LegendMM 25 33   101.66     LegendNANA
18:00 14.0 LegendMM LegendMM 25 34   101.63     LegendNANA
19:00 14.0 LegendMM LegendMM 27 28   101.65     LegendNANA
20:00 13.7 LegendMM LegendMM 28 24   101.67     LegendNANA
21:00 12.6 LegendMM LegendMM 31 24   101.69     LegendNANA
22:00 12.5 LegendMM LegendMM 32 25   101.67     LegendNANA
23:00 11.3 LegendMM LegendMM 30 15   101.68     LegendNANA

Notes on Data Quality.

Legend

  • E = Estimated
  • M = Missing
  • NA = Not Available
  • ‡ = Partner data that is not subject to review by the National Climate Archives
Date modified: